TimeCST,TemperatureF,Dew PointF,Humidity,Sea Level PressureIn,VisibilityMPH,Wind Direction,Wind SpeedMPH,Gust SpeedMPH,PrecipitationIn,Events,Conditions,WindDirDegrees,DateUTC
12:53 AM,16.0,10.0,77,30.24,10.0,South,13.8,-,N/A,,Clear,170,2013-01-07 06:53:00
1:53 AM,17.1,10.0,74,30.22,10.0,South,12.7,-,N/A,,Clear,180,2013-01-07 07:53:00
2:53 AM,16.0,10.0,77,30.21,10.0,SE,12.7,-,N/A,,Clear,140,2013-01-07 08:53:00
3:53 AM,19.0,12.0,74,30.15,10.0,SSE,13.8,-,N/A,,Clear,160,2013-01-07 09:53:00
4:53 AM,21.0,14.0,74,30.09,10.0,South,21.9,27.6,N/A,,Clear,170,2013-01-07 10:53:00
6:53 AM,23.0,14.0,68,30.07,10.0,South,17.3,25.3,N/A,,Clear,170,2013-01-07 12:53:00
7:53 AM,24.1,15.1,69,30.08,10.0,South,16.1,-,N/A,,Clear,170,2013-01-07 13:53:00
8:53 AM,25.0,16.0,69,30.08,10.0,South,12.7,-,N/A,,Clear,170,2013-01-07 14:53:00
9:53 AM,28.9,18.0,64,30.07,10.0,South,10.4,-,N/A,,Clear,170,2013-01-07 15:53:00
10:53 AM,35.1,21.9,59,30.06,10.0,SSW,17.3,27.6,N/A,,Clear,210,2013-01-07 16:53:00
11:53 AM,34.0,21.9,61,30.04,10.0,SSW,15.0,-,N/A,,Clear,210,2013-01-07 17:53:00
12:53 PM,36.0,23.0,59,30.00,10.0,SW,16.1,-,N/A,,Clear,220,2013-01-07 18:53:00
1:53 PM,36.0,24.1,62,30.00,10.0,SW,10.4,-,N/A,,Clear,230,2013-01-07 19:53:00
2:53 PM,36.0,25.0,64,30.02,10.0,SW,13.8,-,N/A,,Clear,230,2013-01-07 20:53:00
3:53 PM,33.1,25.0,72,30.03,10.0,SSW,6.9,-,N/A,,Clear,200,2013-01-07 21:53:00
5:53 PM,33.1,24.1,70,30.03,10.0,South,6.9,-,N/A,,Clear,180,2013-01-07 23:53:00
6:53 PM,30.9,24.1,76,30.04,10.0,SSE,3.5,-,N/A,,Clear,160,2013-01-08 00:53:00
7:53 PM,28.9,23.0,78,30.04,10.0,South,6.9,-,N/A,,Clear,170,2013-01-08 01:53:00
8:53 PM,27.0,21.9,81,30.04,10.0,South,4.6,-,N/A,,Clear,170,2013-01-08 02:53:00
9:53 PM,25.0,21.0,85,30.06,10.0,Calm,Calm,-,N/A,,Clear,0,2013-01-08 03:53:00
10:53 PM,24.1,21.0,88,30.05,10.0,South,5.8,-,N/A,,Clear,180,2013-01-08 04:53:00
11:53 PM,21.9,19.9,92,30.05,10.0,South,5.8,-,N/A,,Clear,180,2013-01-08 05:53:00